Fort Myers, FL

2:46 PM EST on February 23, 2017 (GMT -0500)
Page

Weather History for KFMY - August, 2014

Change the Weather History Date:

Friday, August 22, 2014

  Actual Average Record
Temperature  
Mean Temperature 86 °F 83 °F  
Max Temperature 96 °F 92 °F 96 °F (1978)
Min Temperature 76 °F 75 °F 69 °F (1956)
Degree Days  
Heating Degree Days 0 0  
Month to date heating degree days 0 0  
Since 1 June heating degree days 0 0  
Since 1 July heating degree days 0 0  
Cooling Degree Days 21 18  
Month to date cooling degree days 432 396  
Year to date cooling degree days 2733 2551  
Since 1 June cooling degree days 1542 1485  
Growing Degree Days 36 (Base 50)    
Moisture  
Dew Point 73 °F    
Average Humidity 69    
Maximum Humidity 91    
Minimum Humidity 39    
Precipitation  
Precipitation 0.02 in 0.34 in 1.89 in (1935)
Month to date precipitation 4.95 7.11  
Year to date precipitation 27.41 38.04  
Sea Level Pressure  
Sea Level Pressure 30.03 in    
Wind  
Wind Speed 4 mph (SE)    
Max Wind Speed 16 mph    
Max Gust Speed 20 mph    
Visibility 10 miles    
Events Thunderstorm    
T = Trace of Precipitation, MM = Missing Value Source: NWS Daily Summary

Daily Weather History Graph

Daily Weather History Graph

Search for Another Location

Airport or City:

Trip Planner

Search our weather history database for the weather conditions in past years. The results will help you decide how hot, cold, wet, or windy it might be!

Date:

Astronomy

Aug. 22, 2014 Rise Set
Actual Time 7:02 AM EDT 7:57 PM EDT
Civil Twilight 6:38 AM EDT 8:21 PM EDT
Nautical Twilight 6:10 AM EDT 8:49 PM EDT
Astronomical Twilight 5:41 AM EDT 9:18 PM EDT
Moon 4:31 AM EDT (8/22) 6:00 PM EDT (8/22)
Length of Visible Light 13h 42m
Length of Day
12h 54m
Waning Crescent, 8% of the Moon is Illuminated
Aug 22
Waning Crescent
Aug 25
New
Sep 2
First Quarter
Sep 8
Full
Sep 15
Last Quarter

Hourly Weather History & Observations

Time (EDT) Temp. Heat Index Dew Point Humidity Pressure Visibility Wind Dir Wind Speed Gust Speed Precip Events Conditions
12:53 AM 81.0 °F 86.2 °F 73.9 °F 79% 30.11 in 10.0 mi Calm Calm - N/A   Clear
1:53 AM 79.0 °F - 73.0 °F 82% 30.09 in 10.0 mi ESE 3.5 mph - N/A   Clear
2:53 AM 78.1 °F - 75.0 °F 90% 30.06 in 10.0 mi East 3.5 mph - N/A   Clear
5:53 AM 77.0 °F - 73.9 °F 90% 30.04 in 10.0 mi East 3.5 mph - N/A   Clear
6:53 AM 77.0 °F - 73.9 °F 90% 30.05 in 10.0 mi Calm Calm - N/A   Clear
8:53 AM 82.0 °F 88.6 °F 75.0 °F 79% 30.08 in 10.0 mi ESE 3.5 mph - N/A   Clear
9:53 AM 86.0 °F 95.1 °F 75.0 °F 70% 30.09 in 10.0 mi SE 3.5 mph - N/A   Clear
10:53 AM 88.0 °F 95.6 °F 73.0 °F 61% 30.09 in 10.0 mi SE 4.6 mph - N/A   Clear
11:53 AM 90.0 °F 96.4 °F 71.1 °F 54% 30.09 in 10.0 mi Calm Calm - N/A   Partly Cloudy
12:53 PM 91.0 °F 97.6 °F 71.1 °F 52% 30.06 in 10.0 mi North 4.6 mph - N/A   Scattered Clouds
1:53 PM 93.9 °F 100.3 °F 70.0 °F 46% 30.04 in 10.0 mi ESE 3.5 mph - N/A   Clear
2:53 PM 95.0 °F 101.3 °F 70.0 °F 44% 30.02 in 10.0 mi NW 5.8 mph - N/A   Mostly Cloudy
3:53 PM 95.0 °F 99.0 °F 66.9 °F 40% 30.00 in 10.0 mi Calm Calm - N/A   Clear
5:53 PM 93.0 °F 104.6 °F 75.0 °F 56% 29.97 in 10.0 mi West 4.6 mph - N/A   Mostly Cloudy
6:53 PM 91.0 °F 102.9 °F 75.9 °F 61% 29.97 in 10.0 mi WNW 12.7 mph - N/A   Scattered Clouds
7:11 PM 91.0 °F 104.2 °F 77.0 °F 63% 29.95 in 10.0 mi WNW 12.7 mph - N/A Thunderstorm Scattered Clouds
7:31 PM 90.0 °F 97.9 °F 73.0 °F 57% 29.97 in 10.0 mi NW 11.5 mph - N/A Thunderstorm Thunderstorm
7:53 PM 82.0 °F 86.3 °F 71.1 °F 69% 30.00 in 10.0 mi South 11.5 mph - N/A Thunderstorm Thunderstorm
8:10 PM 80.1 °F 83.2 °F 70.0 °F 71% 30.00 in 10.0 mi SE 3.5 mph - N/A Thunderstorm Partly Cloudy
8:31 PM 81.0 °F 84.9 °F 71.1 °F 72% 30.00 in 10.0 mi South 4.6 mph - N/A   Mostly Cloudy
8:53 PM 82.0 °F 86.7 °F 72.0 °F 71% 30.02 in 10.0 mi South 3.5 mph - N/A Thunderstorm Scattered Clouds
9:01 PM 82.9 °F 88.0 °F 72.0 °F 69% 30.03 in 10.0 mi Variable 5.8 mph - N/A Thunderstorm Thunderstorm
9:47 PM 78.8 °F - 73.4 °F 83% 30.02 in 10.0 mi Calm Calm - 0.02 in   Mostly Cloudy
9:53 PM 79.0 °F - 73.9 °F 84% 30.02 in 10.0 mi Calm Calm - 0.02 in   Mostly Cloudy
10:53 PM 80.1 °F 84.5 °F 73.9 °F 81% 30.01 in 10.0 mi SE 4.6 mph - N/A   Clear
11:53 PM 79.0 °F - 73.9 °F 84% 30.01 in 10.0 mi NNE 3.5 mph - N/A   Partly Cloudy